Weather History for Pinedale, WY

Change the Weather History Date:

Wednesday, May 1, 2013

  Actual Average (KBPI) Record (KBPI)
Temperature  
Mean Temperature 25 °F 41 °F  
Max Temperature 33 °F 57 °F 74 °F (2000)
Min Temperature 17 °F 26 °F 10 °F (2011)
Degree Days  
Heating Degree Days 40 24  
Month to date heating degree days 24  
Since 1 July heating degree days 9555  
Cooling Degree Days 0 0  
Month to date cooling degree days 0  
Year to date cooling degree days 0  
Moisture  
Dew Point 21 °F    
Average Humidity 81    
Maximum Humidity 100    
Minimum Humidity 38    
Precipitation  
Precipitation 0.00 in 0.02 in 0.88 in (2002)
Month to date precipitation 0.02  
Year to date precipitation 1.65  
Sea Level Pressure  
Sea Level Pressure 30.28 in    
Wind  
Wind Speed 5 mph (ENE)    
Max Wind Speed 13 mph    
Max Gust Speed 16 mph    
Visibility 8 miles    
Events Snow    
T = Trace of Precipitation, MM = Missing Value Source: NWS Daily Summary

Daily Weather History Graph

Daily Weather History Graph

Search for Another Location

Airport:

Trip Planner

Search our weather history database for the weather conditions in past years. The results will help you decide how hot, cold, wet, or windy it might be!

Date:

Astronomy

May. 01, 2013 Rise Set
Actual Time 6:13 AM MDT 8:20 PM MDT
Civil Twilight 5:42 AM MDT 8:51 PM MDT
Nautical Twilight 5:04 AM MDT 9:29 PM MDT
Astronomical Twilight 4:22 AM MDT 10:11 PM MDT
Moon 1:32 AM MDT (5/1) 11:55 AM MDT (5/1)
Length of Visible Light 15h 09m
Length of Day
14h 07m
Waning Gibbous, 58% of the Moon is Illuminated
May 1
Waning Gibbous
May 2
Last Quarter
May 9
New
May 17
First Quarter
May 24
Full

Hourly Weather History & Observations

Time (MDT) Temp. Windchill Dew Point Humidity Pressure Visibility Wind Dir Wind Speed Gust Speed Precip Events Conditions
12:15 AM 21.2 °F 14.9 °F 12.2 °F 68% 30.02 in 10.0 mi WNW 4.6 mph - N/A   Clear
12:35 AM 21.2 °F 16.4 °F 12.2 °F 68% 30.03 in 10.0 mi NNW 3.5 mph - N/A   Clear
12:55 AM 19.4 °F 12.8 °F 12.2 °F 74% 30.03 in 10.0 mi West 4.6 mph - N/A   Clear
1:15 AM 19.4 °F 12.8 °F 12.2 °F 74% 30.03 in 10.0 mi NW 4.6 mph - N/A   Clear
1:35 AM 21.2 °F - 12.2 °F 68% 30.05 in 10.0 mi Calm Calm - N/A   Clear
1:55 AM 17.6 °F 12.3 °F 12.2 °F 79% 30.05 in 10.0 mi ESE 3.5 mph - N/A   Mostly Cloudy
2:15 AM 19.4 °F 14.3 °F 12.2 °F 74% 30.05 in 10.0 mi East 3.5 mph - N/A   Overcast
2:35 AM 21.2 °F - 12.2 °F 68% 30.06 in 10.0 mi Calm Calm - N/A   Overcast
2:55 AM 23.0 °F 17.0 °F 14.0 °F 68% 30.06 in 10.0 mi NNW 4.6 mph - N/A   Overcast
3:15 AM 23.0 °F 18.4 °F 14.0 °F 68% 30.07 in 10.0 mi North 3.5 mph - N/A   Overcast
3:35 AM 26.6 °F 22.6 °F 14.0 °F 59% 30.07 in 10.0 mi ESE 3.5 mph - N/A   Overcast
3:55 AM 24.8 °F - 14.0 °F 64% 30.09 in 10.0 mi Calm Calm - N/A   Overcast
4:15 AM 26.6 °F 22.6 °F 15.8 °F 64% 30.09 in 10.0 mi SSW 3.5 mph - N/A   Overcast
4:35 AM 24.8 °F 19.1 °F 17.6 °F 74% 30.10 in 10.0 mi East 4.6 mph - N/A   Overcast
4:55 AM 23.0 °F 17.0 °F 19.4 °F 86% 30.11 in 10.0 mi ENE 4.6 mph - N/A   Overcast
5:15 AM 23.0 °F 18.4 °F 19.4 °F 86% 30.11 in 10.0 mi North 3.5 mph - N/A   Overcast
5:35 AM 23.0 °F 17.0 °F 17.6 °F 80% 30.13 in 10.0 mi NNE 4.6 mph - N/A   Mostly Cloudy
5:55 AM 23.0 °F 18.4 °F 17.6 °F 80% 30.13 in 10.0 mi NNE 3.5 mph - N/A   Overcast
6:15 AM 21.2 °F 16.4 °F 17.6 °F 86% 30.14 in 10.0 mi SW 3.5 mph - N/A   Mostly Cloudy
6:35 AM 21.2 °F - 19.4 °F 93% 30.15 in 10.0 mi Calm Calm - N/A   Overcast
6:55 AM 23.0 °F - 19.4 °F 86% 30.16 in 7.0 mi Calm Calm - N/A Snow Light Snow
7:15 AM 26.6 °F 20.0 °F 21.2 °F 80% 30.17 in 10.0 mi NNW 5.8 mph - N/A   Overcast
7:35 AM 28.4 °F 22.2 °F 21.2 °F 74% 30.18 in 10.0 mi NW 5.8 mph - N/A   Overcast
7:55 AM 28.4 °F 19.7 °F 21.2 °F 74% 30.19 in 10.0 mi NW 9.2 mph - N/A   Overcast
8:15 AM 28.4 °F 19.1 °F 21.2 °F 74% 30.19 in 10.0 mi WNW 10.4 mph - N/A   Overcast
8:35 AM 30.2 °F 21.3 °F 23.0 °F 75% 30.21 in 10.0 mi West 10.4 mph - N/A   Overcast
8:55 AM 30.2 °F 21.3 °F 21.2 °F 69% 30.21 in 10.0 mi NW 10.4 mph - N/A   Overcast
9:15 AM 30.2 °F 21.9 °F 19.4 °F 64% 30.21 in 10.0 mi West 9.2 mph - N/A   Overcast
9:35 AM 30.2 °F 26.7 °F 19.4 °F 64% 30.21 in 10.0 mi WNW 3.5 mph - N/A   Overcast
9:55 AM 32.0 °F 26.4 °F 17.6 °F 55% 30.22 in 10.0 mi WNW 5.8 mph - N/A   Overcast
10:15 AM 32.0 °F - 15.8 °F 51% 30.22 in 10.0 mi Calm Calm - N/A   Overcast
10:35 AM 33.8 °F - 14.0 °F 44% 30.23 in 10.0 mi Calm Calm - N/A   Overcast
10:55 AM 33.8 °F 30.8 °F 10.4 °F 38% 30.24 in 10.0 mi ESE 3.5 mph - N/A   Overcast
11:15 AM 32.0 °F 25.6 °F 15.8 °F 51% 30.24 in 10.0 mi SSW 6.9 mph - N/A   Overcast
11:35 AM 32.0 °F 25.6 °F 19.4 °F 60% 30.26 in 7.0 mi South 6.9 mph - N/A Snow Light Snow
11:55 AM 32.0 °F 23.6 °F 23.0 °F 69% 30.26 in 7.0 mi South 10.4 mph - N/A Snow Light Snow
12:15 PM 30.2 °F 20.2 °F 23.0 °F 75% 30.28 in 3.0 mi South 12.7 mph 16.1 mph N/A Snow Light Snow
12:35 PM 28.4 °F 19.1 °F 26.6 °F 93% 30.29 in 2.5 mi SSE 10.4 mph - N/A Snow Light Snow
12:55 PM 28.4 °F 19.7 °F 26.6 °F 93% 30.30 in 5.0 mi East 9.2 mph - N/A Snow Light Snow
1:15 PM 26.6 °F 18.2 °F 26.6 °F 100% 30.31 in 2.0 mi NE 8.1 mph - N/A Snow Light Snow
1:35 PM 28.4 °F 19.7 °F 26.6 °F 93% 30.32 in 0.8 mi ENE 9.2 mph - N/A Snow Light Snow
1:55 PM 28.4 °F 20.4 °F 26.6 °F 93% 30.33 in 0.2 mi ENE 8.1 mph - N/A Snow Snow
2:15 PM 28.4 °F 21.2 °F 26.6 °F 93% 30.34 in 0.8 mi NE 6.9 mph - N/A Snow Light Snow
2:35 PM 28.4 °F 20.4 °F 28.4 °F 100% 30.35 in 0.2 mi ENE 8.1 mph - N/A Snow Heavy Snow
2:55 PM 28.4 °F 19.7 °F 28.4 °F 100% 30.35 in 1.2 mi ENE 9.2 mph - N/A Snow Light Snow
3:15 PM 30.2 °F 21.3 °F 28.4 °F 93% 30.36 in 5.0 mi East 10.4 mph - N/A   Overcast
3:35 PM 30.2 °F 21.9 °F 30.2 °F 100% 30.36 in 10.0 mi East 9.2 mph - N/A   Mostly Cloudy
3:55 PM 32.0 °F 24.8 °F 28.4 °F 87% 30.36 in 10.0 mi East 8.1 mph - N/A   Scattered Clouds
4:15 PM 30.2 °F 24.3 °F 26.6 °F 86% 30.37 in 10.0 mi SE 5.8 mph - N/A   Mostly Cloudy
4:35 PM 30.2 °F 25.4 °F 26.6 °F 86% 30.38 in 10.0 mi South 4.6 mph - N/A   Overcast
5:15 PM 32.0 °F 27.5 °F 28.4 °F 87% 30.40 in 10.0 mi ESE 4.6 mph - N/A   Overcast
5:35 PM 30.2 °F 25.4 °F 28.4 °F 93% 30.41 in 3.0 mi East 4.6 mph - N/A Snow Light Snow
5:55 PM 30.2 °F 26.7 °F 24.8 °F 80% 30.42 in 3.0 mi East 3.5 mph - N/A Snow Light Snow
6:15 PM 28.4 °F - 26.6 °F 93% 30.43 in 0.5 mi Calm Calm - N/A Snow Snow
6:35 PM 28.4 °F 21.2 °F 28.4 °F 100% 30.43 in 0.2 mi SSE 6.9 mph - N/A Snow Snow
6:55 PM 28.4 °F 21.2 °F 28.4 °F 100% 30.44 in 3.0 mi East 6.9 mph - N/A Snow Light Snow
7:35 PM 28.4 °F 24.6 °F 26.6 °F 93% 30.46 in 1.0 mi SSW 3.5 mph - N/A Snow Light Snow
7:55 PM 28.4 °F - 26.6 °F 93% 30.47 in 10.0 mi Calm Calm - N/A   Mostly Cloudy
8:35 PM 28.4 °F 24.6 °F 23.0 °F 80% 30.49 in 10.0 mi WNW 3.5 mph - N/A   Mostly Cloudy
8:55 PM 28.4 °F 23.3 °F 23.0 °F 80% 30.50 in 10.0 mi North 4.6 mph - N/A   Overcast
9:15 PM 24.8 °F 20.5 °F 23.0 °F 93% 30.51 in 10.0 mi ENE 3.5 mph - N/A   Scattered Clouds
9:35 PM 23.0 °F 17.0 °F 23.0 °F 100% 30.52 in 10.0 mi SE 4.6 mph - N/A   Scattered Clouds
9:55 PM 21.2 °F - 21.2 °F 100% 30.54 in 10.0 mi Calm Calm - N/A   Mostly Cloudy
10:15 PM 19.4 °F - 19.4 °F 100% 30.54 in 10.0 mi Calm Calm - N/A   Scattered Clouds
10:35 PM 21.2 °F - 21.2 °F 100% 30.56 in 10.0 mi Calm Calm - N/A   Scattered Clouds
10:55 PM 23.0 °F - 23.0 °F 100% 30.56 in 10.0 mi Calm Calm - N/A   Overcast
11:15 PM 24.8 °F 19.1 °F 24.8 °F 100% 30.57 in 10.0 mi East 4.6 mph - N/A   Overcast
11:35 PM 24.8 °F 20.5 °F 24.8 °F 100% 30.58 in 10.0 mi ESE 3.5 mph - N/A   Overcast
11:55 PM 26.6 °F - 24.8 °F 93% 30.58 in 10.0 mi Calm Calm - N/A   Overcast